When you browse on this site, cookies collect data to enhance your experience and personalize the content and advertising you see.
Visit our Privacy Policy to learn more. By continuing to use the site, you agree to this use of cookies and data.
  • In Czech Republic
  • List of Countries
  • For 7 days
  • Water Temperature
  • Satellite Maps
  • Weather Map
  • Weather Widgets
  • user-avatar
    Login

    Hourly Weather Fedorkovo

    Today, 19 February, Tuesday

    Time Temperature Precipitation Wind Pressure Humidity
    00:00 -4°C° 0 mm 4 mps 753 mmHg 68%
    01:00 -4°C° 0 mm 4 mps 752 mmHg 66%
    02:00 -4°C° 0 mm 4 mps 752 mmHg 73%
    03:00 -4°C° 0 mm 4 mps 751 mmHg 75%
    04:00 -4°C° 0 mm 4 mps 750 mmHg 78%
    05:00 -4°C° 0 mm 5 mps 750 mmHg 81%
    06:00 -4°C° 0 mm 5 mps 749 mmHg 82%
    07:00 -4°C° 0 mm 5 mps 749 mmHg 84%
    08:00 -4°C° 0 mm 5 mps 748 mmHg 86%
    09:00 -2°C° 0 mm 5 mps 748 mmHg 84%
    10:00 -1°C° 0 mm 5 mps 747 mmHg 83%
    11:00 0°C° 0 mm 5 mps 747 mmHg 81%
    12:00 +1°C° 0 mm 5 mps 746 mmHg 81%
    13:00 +1°C° 0 mm 5 mps 746 mmHg 81%
    14:00 +3°C° 0 mm 4 mps 745 mmHg 80%
    15:00 +3°C° 0 mm 4 mps 744 mmHg 82%
    16:00 +1°C° 0 mm 4 mps 743 mmHg 85%
    17:00 0°C° 0 mm 4 mps 743 mmHg 87%
    18:00 0°C° 0 mm 5 mps 742 mmHg 88%
    19:00 +1°C° 0 mm 5 mps 741 mmHg 88%
    20:00 +1°C° 0 mm 5 mps 740 mmHg 89%
    21:00 +1°C° 0 mm 5 mps 740 mmHg 89%
    22:00 +1°C° 0 mm 5 mps 739 mmHg 90%
    23:00 +1°C° 0 mm 4 mps 739 mmHg 90%

    Tomorrow, 20 February, Wednesday

    Time Temperature Precipitation Wind Pressure Humidity
    00:00 +1°C° 0.1 mm 4 mps 738 mmHg 90%
    01:00 +1°C° 0.1 mm 4 mps 738 mmHg 90%
    02:00 +1°C° 0.1 mm 4 mps 738 mmHg 90%
    03:00 0°C° 0 mm 4 mps 738 mmHg 90%
    04:00 0°C° 0 mm 4 mps 738 mmHg 90%
    05:00 0°C° 0 mm 4 mps 737 mmHg 90%
    06:00 0°C° 0 mm 4 mps 737 mmHg 90%
    07:00 0°C° 0 mm 5 mps 737 mmHg 89%
    08:00 0°C° 0 mm 5 mps 737 mmHg 89%
    09:00 +1°C° 0 mm 5 mps 737 mmHg 88%
    10:00 +1°C° 0 mm 5 mps 736 mmHg 87%
    11:00 +1°C° 0 mm 5 mps 736 mmHg 85%
    12:00 +1°C° 0.2 mm 5 mps 736 mmHg 85%
    13:00 +1°C° 0.2 mm 5 mps 736 mmHg 85%
    14:00 +1°C° 0.2 mm 5 mps 735 mmHg 84%
    15:00 +1°C° 0.3 mm 5 mps 735 mmHg 82%
    16:00 -1°C° 0.3 mm 6 mps 736 mmHg 80%
    17:00 -2°C° 0.3 mm 6 mps 736 mmHg 77%
    18:00 -3°C° 0.1 mm 6 mps 736 mmHg 78%
    19:00 -4°C° 0.1 mm 6 mps 737 mmHg 79%
    20:00 -5°C° 0.1 mm 6 mps 738 mmHg 81%
    21:00 -5°C° 0.1 mm 6 mps 738 mmHg 79%
    22:00 -6°C° 0.1 mm 6 mps 739 mmHg 76%
    23:00 -7°C° 0.1 mm 7 mps 739 mmHg 74%

    Day after tomorrow, 21 February, Thursday

    Time Temperature Precipitation Wind Pressure Humidity
    00:00 -7°C° 0.1 mm 7 mps 740 mmHg 74%
    01:00 -7°C° 0.1 mm 7 mps 740 mmHg 73%
    02:00 -7°C° 0.1 mm 7 mps 741 mmHg 72%
    03:00 -8°C° 0.1 mm 7 mps 741 mmHg 71%
    04:00 -8°C° 0.1 mm 7 mps 742 mmHg 71%
    05:00 -8°C° 0.1 mm 7 mps 742 mmHg 70%
    06:00 -8°C° 0.1 mm 7 mps 743 mmHg 70%
    07:00 -9°C° 0.1 mm 6 mps 744 mmHg 70%
    08:00 -9°C° 0.1 mm 6 mps 745 mmHg 69%
    09:00 -9°C° 0 mm 6 mps 746 mmHg 68%
    10:00 -9°C° 0 mm 6 mps 747 mmHg 67%
    11:00 -9°C° 0 mm 6 mps 747 mmHg 65%
    12:00 -9°C° 0 mm 6 mps 748 mmHg 64%
    13:00 -8°C° 0 mm 5 mps 748 mmHg 64%
    14:00 -7°C° 0 mm 5 mps 749 mmHg 63%
    15:00 -8°C° 0 mm 5 mps 749 mmHg 64%
    16:00 -8°C° 0 mm 5 mps 750 mmHg 65%
    17:00 -10°C° 0 mm 5 mps 751 mmHg 66%
    18:00 -10°C° 0 mm 5 mps 751 mmHg 67%
    19:00 -11°C° 0 mm 5 mps 752 mmHg 67%
    20:00 -11°C° 0 mm 5 mps 753 mmHg 68%
    21:00 -11°C° 0 mm 5 mps 753 mmHg 68%
    22:00 -11°C° 0 mm 4 mps 754 mmHg 68%
    23:00 -11°C° 0 mm 4 mps 755 mmHg 68%

    22 February, Friday

    Time Temperature Precipitation Wind Pressure Humidity
    00:00 -11°C° 0 mm 4 mps 755 mmHg 69%
    01:00 -11°C° 0 mm 4 mps 756 mmHg 70%
    02:00 -11°C° 0 mm 4 mps 757 mmHg 71%
    03:00 -11°C° 0 mm 4 mps 757 mmHg 72%
    04:00 -12°C° 0 mm 4 mps 758 mmHg 74%
    05:00 -12°C° 0 mm 4 mps 758 mmHg 75%
    06:00 -12°C° 0 mm 4 mps 759 mmHg 75%
    07:00 -13°C° 0 mm 5 mps 759 mmHg 74%
    08:00 -13°C° 0 mm 5 mps 760 mmHg 74%
    09:00 -12°C° 0 mm 5 mps 760 mmHg 70%
    10:00 -11°C° 0 mm 5 mps 760 mmHg 65%
    11:00 -11°C° 0 mm 5 mps 761 mmHg 60%
    12:00 -10°C° 0 mm 5 mps 761 mmHg 58%
    13:00 -10°C° 0 mm 6 mps 761 mmHg 56%
    14:00 -9°C° 0 mm 6 mps 761 mmHg 53%
    15:00 -10°C° 0 mm 5 mps 761 mmHg 56%
    16:00 -10°C° 0 mm 5 mps 761 mmHg 58%
    17:00 -9°C° 0 mm 4 mps 761 mmHg 60%
    18:00 -10°C° 0 mm 4 mps 762 mmHg 64%
    19:00 -10°C° 0 mm 4 mps 762 mmHg 67%
    20:00 -11°C° 0 mm 4 mps 763 mmHg 70%
    21:00 -11°C° 0 mm 4 mps 763 mmHg 73%
    22:00 -11°C° 0 mm 4 mps 763 mmHg 76%
    23:00 -12°C° 0 mm 4 mps 764 mmHg 79%

    23 February, Saturday

    Time Temperature Precipitation Wind Pressure Humidity
    00:00 -12°C° 0 mm 3 mps 764 mmHg 80%
    01:00 -12°C° 0 mm 3 mps 764 mmHg 81%
    02:00 -12°C° 0 mm 3 mps 765 mmHg 82%
    03:00 -12°C° 0 mm 3 mps 765 mmHg 84%
    04:00 -12°C° 0 mm 2 mps 764 mmHg 87%
    05:00 -12°C° 0 mm 2 mps 764 mmHg 90%
    06:00 -12°C° 0 mm 2 mps 764 mmHg 90%
    07:00 -12°C° 0 mm 2 mps 765 mmHg 90%
    08:00 -10°C° 0 mm 1 mps 765 mmHg 90%
    09:00 -9°C° 0 mm 1 mps 764 mmHg 82%
    10:00 -8°C° 0 mm 1 mps 764 mmHg 75%
    11:00 -7°C° 0 mm 1 mps 764 mmHg 67%
    12:00 -6°C° 0 mm 1 mps 764 mmHg 65%
    13:00 -6°C° 0 mm 1 mps 763 mmHg 64%
    14:00 -6°C° 0 mm 2 mps 763 mmHg 62%
    15:00 -6°C° 0 mm 2 mps 762 mmHg 63%
    16:00 -6°C° 0 mm 2 mps 762 mmHg 64%
    17:00 -6°C° 0 mm 2 mps 761 mmHg 65%
    18:00 -6°C° 0.2 mm 2 mps 761 mmHg 72%
    19:00 -7°C° 0.2 mm 2 mps 761 mmHg 79%
    20:00 -7°C° 0.2 mm 2 mps 760 mmHg 86%
    21:00 -7°C° 0.3 mm 2 mps 760 mmHg 88%
    22:00 -7°C° 0.3 mm 2 mps 760 mmHg 89%
    23:00 -6°C° 0.3 mm 2 mps 760 mmHg 91%

    24 February, Sunday

    Time Temperature Precipitation Wind Pressure Humidity
    00:00 -6°C° 0 mm 2 mps 760 mmHg 92%
    01:00 -6°C° 0 mm 1 mps 760 mmHg 93%
    02:00 -6°C° 0 mm 1 mps 760 mmHg 94%
    03:00 -4°C° 0 mm 1 mps 761 mmHg 94%
    04:00 -4°C° 0 mm 1 mps 761 mmHg 94%
    05:00 -4°C° 0 mm 1 mps 761 mmHg 95%
    06:00 -4°C° 0 mm 1 mps 761 mmHg 94%
    07:00 -4°C° 0 mm 1 mps 762 mmHg 94%
    08:00 -4°C° 0 mm 0 mps 762 mmHg 94%
    09:00 -2°C° 0 mm 1 mps 763 mmHg 91%
    10:00 -1°C° 0 mm 1 mps 763 mmHg 87%
    11:00 -1°C° 0 mm 1 mps 763 mmHg 84%
    12:00 0°C° 0 mm 1 mps 763 mmHg 83%
    13:00 0°C° 0 mm 1 mps 763 mmHg 82%
    14:00 0°C° 0 mm 1 mps 763 mmHg 81%
    15:00 0°C° 0 mm 1 mps 763 mmHg 84%
    16:00 -1°C° 0 mm 1 mps 763 mmHg 88%
    17:00 -1°C° 0 mm 1 mps 763 mmHg 91%
    18:00 -2°C° 0 mm 1 mps 763 mmHg 92%
    19:00 -2°C° 0 mm 1 mps 763 mmHg 93%
    20:00 -3°C° 0 mm 1 mps 763 mmHg 95%
    21:00 -3°C° 0 mm 1 mps 763 mmHg 95%
    22:00 -5°C° 0 mm 2 mps 763 mmHg 95%
    23:00 -5°C° 0 mm 2 mps 762 mmHg 96%
    Show more